Starlink 31078

operational
NORAD ID: 58638 Int'l Des: 2023-203 Owner: SPXS Country: US Constellation: starlink
LEOCIRCULAR

Über Starlink 31078

Beschreibung wird geladen...

Live-Position

3D-Globus wird geladen...

Nächste Überflüge

Höhenverlauf

Altitude vs Time

uPlot chart will show altitude changes over time

Zweizeiliger Elementsatz

1 58638U 23203W 25304.71174610 .00001808 00000-0 75186-4 0 9999
2 58638 43.0020 75.6860 0001762 264.1062 95.9589 15.27589606103839
Epoch: 31. Okt. 2025 • Age: 15 hours

Aktueller Status

Höhe 486.9 km
Geschwindigkeit 7.62 km/s
Subsatellitenpunkt -20.44°S, 112.85°E
Startdatum 23. Dez. 2023
Alter 1.8 years
Typ internet

Technische Details

Klassifizierung Payload
Masse 730.00 kg
Trockenmasse 700.00 kg
Gesamtmasse 730.00 kg
Länge 0.30 m
Durchmesser 4.10 m
Spannweite 29.00 m
Form Box + pan
Hersteller SPXS
Bus-Typ Starlink V2M
Phasenstatus In Orbit
Besitzer/Staat SPXS/US

Große Konstellationen

Loading constellations...